Weather History for Craig, CO

Change the Weather History Date:

Wednesday, March 20, 2013

  Actual Average Record
Temperature  
Mean Temperature 34 °F 34 °F  
Max Temperature 48 °F 48 °F 70 °F (2004)
Min Temperature 19 °F 21 °F 5 °F (2002)
Degree Days  
Heating Degree Days 31 31  
Month to date heating degree days 681 701  
Since 1 July heating degree days 7000 7027  
Cooling Degree Days 0 0  
Month to date cooling degree days 0 0  
Year to date cooling degree days 0 0  
Moisture  
Dew Point 18 °F    
Average Humidity 52    
Maximum Humidity 73    
Minimum Humidity 30    
Precipitation  
Precipitation 0.00 in 0.05 in 0.09 in (2005)
Month to date precipitation 0.45 0.75  
Year to date precipitation 1.49 2.45  
Sea Level Pressure  
Sea Level Pressure 30.09 in    
Wind  
Wind Speed 4 mph (ENE)    
Max Wind Speed 16 mph    
Max Gust Speed 26 mph    
Visibility 10 miles    
Events      
T = Trace of Precipitation, MM = Missing Value Source: NWS Daily Summary

Daily Weather History Graph

Daily Weather History Graph

Search for Another Location

Airport:

Trip Planner

Search our weather history database for the weather conditions in past years. The results will help you decide how hot, cold, wet, or windy it might be!

Date:

Astronomy

Mar. 20, 2013 Rise Set
Actual Time 7:12 AM MDT 7:22 PM MDT
Civil Twilight 6:45 AM MDT 7:49 PM MDT
Nautical Twilight 6:13 AM MDT 8:21 PM MDT
Astronomical Twilight 5:41 AM MDT 8:54 PM MDT
Moon 12:59 PM MDT (3/20) 2:56 AM MDT (3/20)
Length of Visible Light 13h 04m
Length of Day
12h 09m
First Quarter, 60% of the Moon is Illuminated
Mar 20
First Quarter
Mar 27
Full
Apr 2
Last Quarter
Apr 10
New
Apr 18
First Quarter

Hourly Weather History & Observations

Time (MDT) Temp. Windchill Dew Point Humidity Pressure Visibility Wind Dir Wind Speed Gust Speed Precip Events Conditions
12:53 AM 23.0 °F - 12.0 °F 63% 30.30 in 10.0 mi Calm Calm - N/A   Clear
1:53 AM 21.9 °F - 12.9 °F 68% 30.28 in 10.0 mi Calm Calm - N/A   Clear
2:53 AM 21.9 °F - 10.9 °F 63% 30.27 in 10.0 mi Calm Calm - N/A   Clear
3:53 AM 19.9 °F - 12.9 °F 74% 30.26 in 10.0 mi Calm Calm - N/A   Clear
4:53 AM 21.0 °F - 12.9 °F 71% 30.23 in 10.0 mi Calm Calm - N/A   Clear
5:53 AM 21.0 °F - 12.0 °F 68% 30.23 in 10.0 mi Calm Calm - N/A   Clear
6:53 AM 21.9 °F - 12.0 °F 66% 30.24 in 10.0 mi Calm Calm - N/A   Clear
7:53 AM 23.0 °F - 14.0 °F 68% 30.26 in 10.0 mi Calm Calm - N/A   Clear
8:53 AM 26.1 °F 21.9 °F 15.1 °F 63% 30.24 in 10.0 mi West 3.5 mph - N/A   Clear
9:53 AM 30.0 °F 26.5 °F 14.0 °F 51% 30.22 in 10.0 mi SW 3.5 mph - N/A   Clear
10:53 AM 37.0 °F 28.5 °F 10.9 °F 34% 30.15 in 10.0 mi ENE 13.8 mph - N/A   Clear
11:53 AM 39.9 °F 33.9 °F 12.0 °F 32% 30.11 in 10.0 mi ENE 9.2 mph - N/A   Clear
12:53 PM 41.0 °F 35.8 °F 12.0 °F 31% 30.09 in 10.0 mi ENE 8.1 mph - N/A   Overcast
1:53 PM 43.0 °F 40.3 °F 17.1 °F 35% 30.04 in 10.0 mi ENE 4.6 mph - N/A   Overcast
2:53 PM 45.0 °F 41.8 °F 19.9 °F 37% 30.00 in 10.0 mi ENE 5.8 mph - N/A   Overcast
3:53 PM 46.9 °F - 21.9 °F 37% 29.96 in 10.0 mi Variable 6.9 mph 26.5 mph N/A   Overcast
4:53 PM 46.9 °F - 19.9 °F 34% 29.96 in 10.0 mi NW 4.6 mph - N/A   Overcast
5:53 PM 42.1 °F 40.2 °F 27.0 °F 55% 29.97 in 10.0 mi SSE 3.5 mph - N/A   Overcast
6:53 PM 46.0 °F 39.9 °F 23.0 °F 40% 29.93 in 10.0 mi SSW 13.8 mph 21.9 mph N/A   Overcast
7:53 PM 39.9 °F - 27.0 °F 60% 29.94 in 10.0 mi Calm Calm - N/A   Overcast
8:53 PM 39.0 °F - 26.1 °F 60% 29.93 in 10.0 mi Calm Calm - N/A   Overcast
9:53 PM 43.0 °F - 25.0 °F 49% 29.88 in 10.0 mi Calm Calm - N/A   Overcast
10:53 PM 43.0 °F - 26.1 °F 51% 29.84 in 10.0 mi Calm Calm - N/A   Overcast
11:53 PM 39.2 °F 32.5 °F 28.4 °F 65% 29.86 in 10.0 mi ENE 10.4 mph - N/A   Overcast